This is the latest recevied weather packets stored in our database for station/object IK2CHZ-3. If no packets are shown the sender has not sent any weather packets the latest 10 day(s).
| Time | Temp. | Humidity | Pressure | Rain* | Wind** | Luminosity | Snow |
|---|---|---|---|---|---|---|---|
| 1777626541 | 16.67° C | 39% | 1028.5 hPa | 0 mm | - | - | - |
| 1777625882 | 16.67° C | 40% | 1028.6 hPa | 0 mm | - | - | - |
| 1777625280 | 16.11° C | 41% | 1028.7 hPa | 0 mm | - | - | - |
| 1777625221 | 16.11° C | 41% | 1028.7 hPa | 0 mm | - | - | - |
| 1777624854 | 16.11° C | 42% | 1028.6 hPa | 0 mm | - | - | - |
| 1777624562 | 16.11° C | 42% | 1028.6 hPa | 0 mm | - | - | - |
| 1777623901 | 16.11° C | 42% | 1028.5 hPa | 0 mm | - | - | - |
| 1777623241 | 15.56° C | 44% | 1028.5 hPa | 0 mm | - | - | - |
| 1777622582 | 15.56° C | 45% | 1028.4 hPa | 0 mm | - | - | - |
| 1777621922 | 14.44° C | 46% | 1028.3 hPa | 0 mm | - | - | - |
| 1777621261 | 14.44° C | 47% | 1028.3 hPa | 0 mm | - | - | - |
| 1777620602 | 14.44° C | 47% | 1028.3 hPa | 0 mm | - | - | - |
| 1777619942 | 13.89° C | 47% | 1028.3 hPa | 0 mm | - | - | - |
| 1777619282 | 13.33° C | 48% | 1028.1 hPa | 0 mm | - | - | - |
| 1777618622 | 13.33° C | 47% | 1028.1 hPa | 0 mm | - | - | - |
| 1777617960 | 13.33° C | 49% | 1028 hPa | 0 mm | - | - | - |
| 1777617302 | 13.33° C | 50% | 1027.9 hPa | 0 mm | - | - | - |
| 1777616641 | 12.78° C | 52% | 1027.8 hPa | 0 mm | - | - | - |
| 1777615982 | 12.78° C | 52% | 1027.6 hPa | 0 mm | - | - | - |
| 1777615428 | 12.78° C | 53% | 1027.7 hPa | 0 mm | - | - | - |
| 1777615321 | 12.78° C | 53% | 1027.7 hPa | 0 mm | - | - | - |
| 1777614662 | 12.22° C | 53% | 1027.7 hPa | 0 mm | - | - | - |
| 1777614106 | 12.22° C | 53% | 1027.6 hPa | 0 mm | - | - | - |
| 1777614000 | 12.22° C | 53% | 1027.6 hPa | 0 mm | - | - | - |
| 1777613342 | 12.22° C | 54% | 1027.4 hPa | 0 mm | - | - | - |
* Rain latest hour (hover to see other rain measurements)
** Current wind speed in m/s (hover to see current wind gust speed)